Skip Page Navigation
NASA JPL Caltech
NASA Logo - Jet Propulsion Laboratory + View the NASA Portal
+ Center for Near-Earth Object Studies
JPL Home Earth Solar System Stars & Galaxies Technology
JPL Solar System Dynamics
BODIES ORBITS EPHEMERIDES TOOLS PHYSICAL DATA DISCOVERY FAQ SITE MAP
IMPORTANT: The SSD Announcement email list is now available. Major changes are coming in the near future, including possible hostname and/or URL changes. To be notified of such changes, subscribe to this email list.

Please visit this page for more details.


JPL Small-Body Database Browser
Search: [ help ]  
379587 (2011 BE100)
Classification: Main-belt Asteroid          SPK-ID: 2379587
Ephemeris | Orbit Diagram | Orbital Elements | Mission Design | Physical Parameters | Discovery Circumstances ]

[ show orbit diagram ]
Orbital Elements at Epoch 2458600.5 (2019-Apr-27.0) TDB
Reference: JPL 10 (heliocentric ecliptic J2000)
 Element Value Uncertainty (1-sigma)   Units 
e .08428608552495706 2.3529e-07  
a 2.482343685759492 2.964e-08 au
q 2.27311665355923 5.8436e-07 au
i 5.742276503541111 1.1337e-05 deg
node 209.4722900373897 8.8688e-05 deg
peri 285.5358806536181 0.00020192 deg
M 45.26520503461932 0.0001641 deg
tp 2458420.880582568683
(2018-Oct-29.38058257)
0.00065073 TDB
period 1428.536338801941
3.91
2.5586e-05
7.005e-08
d
yr
n .2520061899873813 4.5136e-09 deg/d
Q 2.691570717959753 3.2139e-08 au
  Orbit Determination Parameters
   # obs. used (total)      87  
   data-arc span      6384 days (17.48 yr)  
   first obs. used      2001-10-14  
   last obs. used      2019-04-07  
   planetary ephem.      DE431  
   SB-pert. ephem.      SB431-N16  
   condition code      0  
   norm. resid. RMS      .64843  
   source      ORB  
   producer      Otto Matic  
   solution date      2019-Jul-14 14:14:32  

Additional Information
 Earth MOID = 1.29517 au 
 Jupiter MOID = 2.34594 au 
 T_jup = 3.466 
[ show covariance matrix ]

Ephemeris | Orbit Diagram | Orbital Elements | Mission Design | Physical Parameters | Discovery Circumstances ]

Physical Parameter Table
Parameter Symbol Value Units Sigma Reference Notes
absolute magnitude H 17.4   n/a MPO427886  

379587 (2011 BE100)          Discovered 2009-Sep-18 by Spacewatch at Kitt Peak
Reference: Last Updated: 2013-11-20
Ephemeris | Orbit Diagram | Orbital Elements | Mission Design | Physical Parameters | Discovery Circumstances ]
ABOUT SSD CREDITS/AWARDS PRIVACY/COPYRIGHT GLOSSARY LINKS
FirstGov 2019-Dec-14 07:56 UT
(server date/time)  
NASA Home Page
Site Manager:   Ryan S. Park
Webmaster  Alan B. Chamberlin